FW8265 Weather Reports


time (UTC)temp
C
wind
direction
speed
KPH
gust
KPH
rain 1hr
cm
rain 24hr
cm
rain mn
cm
humidity
%
barometer
mb
20260508220053 20 0 1.6 12.9 0.00 0.00 0.00 46 1009.3
20260508214550 20 0 1.6 11.3 0.00 0.00 0.00 47 1009.5
20260508213048 21 265 3.2 12.9 0.00 0.00 0.00 45 1009.5
20260508211555 21 0 3.2 11.3 0.00 0.00 0.00 45 1009.8
20260508210055 20 0 1.6 14.5 0.00 0.00 0.00 45 1010.0
20260508204550 21 274 1.6 11.3 0.00 0.00 0.00 42 1010.2
20260508203059 20 0 1.6 12.9 0.00 0.00 0.00 44 1010.4
20260508201550 20 253 1.6 17.7 0.00 0.00 0.00 44 1010.6
20260508194552 22 0 3.2 14.5 0.00 0.00 0.00 42 1010.9
20260508193058 22 199 3.2 20.9 0.00 0.00 0.00 39 1011.0
20260508191551 22 140 3.2 20.9 0.00 0.00 0.00 44 1011.2
20260508190051 21 160 3.2 16.1 0.00 0.00 0.00 44 1011.3
20260508184547 21 241 6.4 25.7 0.00 0.00 0.00 42 1011.7
20260508183104 21 0 1.6 17.7 0.00 0.00 0.00 43 1011.9
20260508181601 21 293 3.2 12.9 0.00 0.00 0.00 45 1012.2
20260508180049 21 155 4.8 14.5 0.00 0.00 0.00 45 1012.3
20260508174551 21 223 4.8 14.5 0.00 0.00 0.00 48 1012.4
20260508173048 20 211 1.6 9.7 0.00 0.00 0.00 45 1013.0
20260508171552 20 267 3.2 22.5 0.00 0.00 0.00 45 1013.3
20260508170051 20 251 3.2 14.5 0.00 0.00 0.00 47 1013.7
20260508164552 20 244 1.6 19.3 0.00 0.00 0.00 47 1013.8
20260508163050 20 159 4.8 16.1 0.00 0.00 0.00 46 1014.0
20260508161549 20 146 3.2 17.7 0.00 0.00 0.00 49 1014.2
20260508160056 19 75 3.2 16.1 0.00 0.00 0.00 48 1014.4
20260508154551 19 0 1.6 11.3 0.00 0.00 0.00 52 1014.5
20260508153051 18 201 3.2 16.1 0.00 0.00 0.00 51 1014.6
20260508151554 18 201 3.2 16.1 0.00 0.00 0.00 53 1014.9
20260508150107 18 173 3.2 12.9 0.00 0.00 0.00 50 1014.7
20260508144555 18 210 3.2 11.3 0.00 0.00 0.00 49 1014.9
20260508143050 17 0 3.2 20.9 0.00 0.00 0.00 52 1015.0
20260508141600 16 218 1.6 12.9 0.00 0.00 0.00 55 1015.2
20260508140058 15 271 1.6 9.7 0.00 0.00 0.00 59 1015.2
20260508134548 14 279 1.6 6.4 0.00 0.00 0.00 60 1015.3
20260508133045 13 155 1.6 11.3 0.00 0.00 0.00 68 1015.4
20260508131553 12 0 1.6 12.9 0.00 0.00 0.00 68 1015.3
20260508130048 11 0 0.0 14.5 0.00 0.00 0.00 69 1015.1
20260508124548 11 153 1.6 11.3 0.00 0.00 0.00 71 1015.1
20260508123048 10 0 1.6 8.0 0.00 0.00 0.00 74 1015.1
20260508121549 8 148 1.6 4.8 0.00 0.00 0.00 77 1015.1
20260508120048 7 0 0.0 8.0 0.00 0.00 0.00 79 1014.9
20260508114550 7 0 0.0 4.8 0.00 0.00 0.00 83 1015.0
20260508113117 6 151 0.0 3.2 0.00 0.00 0.00 83 1014.8
20260508111545 6 0 0.0 4.8 0.00 0.00 0.00 84 1014.5
20260508110050 6 0 0.0 1.6 0.00 0.00 0.00 84 1014.5
20260508104557 6 0 0.0 4.8 0.00 0.00 0.00 87 1014.6
20260508103055 5 0 0.0 0.0 0.00 0.00 0.00 89 1014.4
20260508101550 5 0 0.0 1.6 0.00 0.00 0.00 91 1014.4
20260508100048 5 0 0.0 0.0 0.00 0.00 0.00 91 1014.4
20260508094549 5 0 0.0 0.0 0.00 0.00 0.00 91 1014.3
20260508093046 5 0 0.0 0.0 0.00 0.00 0.00 90 1014.4
20260508091549 5 0 0.0 0.0 0.00 0.00 0.00 91 1014.4
20260508090051 4 0 0.0 0.0 0.00 0.00 0.00 91 1014.4
20260508084547 4 0 0.0 0.0 0.00 0.00 0.00 90 1014.4
20260508083053 4 0 0.0 0.0 0.00 0.00 0.00 90 1014.4
20260508081550 5 0 0.0 0.0 0.00 0.00 0.00 90 1014.3
20260508080051 5 0 0.0 0.0 0.00 0.00 0.00 89 1014.4
20260508074553 5 0 0.0 0.0 0.00 0.00 0.00 88 1014.4
20260508073102 5 0 0.0 0.0 0.00 0.00 0.00 88 1014.4
20260508071553 5 0 0.0 0.0 0.00 0.00 0.00 87 1014.4
20260508070054 5 0 0.0 0.0 0.00 0.00 0.00 87 1014.4
20260508064604 5 0 0.0 0.0 0.00 0.00 0.00 86 1014.7
20260508063047 5 0 0.0 0.0 0.00 0.00 0.00 86 1015.0
20260508061557 5 0 0.0 0.0 0.00 0.00 0.00 86 1015.1
20260508060052 5 0 0.0 0.0 0.00 0.00 0.00 84 1015.1
20260508054612 6 0 0.0 0.0 0.00 0.00 0.00 85 1015.2
20260508053051 6 0 0.0 0.0 0.00 0.00 0.00 85 1015.3
20260508051549 6 0 0.0 0.0 0.00 0.00 0.00 84 1015.1
20260508050054 6 0 0.0 0.0 0.00 0.00 0.00 83 1015.0
20260508044551 6 0 0.0 0.0 0.00 0.00 0.00 82 1015.1
20260508043056 6 0 0.0 0.0 0.00 0.00 0.00 82 1015.2
20260508041551 6 0 0.0 0.0 0.00 0.00 0.00 83 1014.9
20260508034548 7 0 0.0 0.0 0.00 0.00 0.00 79 1015.3
20260508033050 7 0 0.0 0.0 0.00 0.00 0.00 78 1015.2
20260508031557 7 0 0.0 0.0 0.00 0.00 0.00 78 1015.0
20260508030057 7 0 0.0 0.0 0.00 0.00 0.00 80 1015.1
20260508024550 7 0 0.0 0.0 0.00 0.00 0.00 78 1014.9
20260508023047 8 0 0.0 0.0 0.00 0.00 0.00 77 1014.9
20260508021559 8 0 0.0 0.0 0.00 0.00 0.00 75 1014.9
20260508020050 8 0 0.0 0.0 0.00 0.00 0.00 70 1015.0
20260508014548 9 0 0.0 0.0 0.00 0.00 0.00 68 1014.9
20260508013047 10 0 0.0 0.0 0.00 0.00 0.00 67 1014.7
20260508011550 10 0 0.0 0.0 0.00 0.00 0.00 64 1014.6
20260508010046 11 0 0.0 0.0 0.00 0.00 0.00 62 1014.5
20260508004549 12 0 0.0 0.0 0.00 0.00 0.00 59 1014.5
20260508003051 12 0 0.0 0.0 0.00 0.00 0.00 55 1014.3
20260508001547 13 0 0.0 0.0 0.00 0.00 0.00 47 1014.1
20260508000113 13 0 0.0 0.0 0.00 0.00 0.00 46 1014.0
20260507234554 14 0 0.0 6.4 0.00 0.00 0.00 44 1013.9
20260507233049 14 0 0.0 4.8 0.00 0.00 0.00 41 1013.9
20260507231604 15 0 0.0 3.2 0.00 0.00 0.00 40 1013.8
20260507230056 15 198 0.0 4.8 0.00 0.00 0.00 40 1014.0
20260507224552 16 0 0.0 4.8 0.00 0.00 0.00 38 1014.0
20260507223048 17 0 0.0 3.2 0.00 0.00 0.00 38 1013.9
20260507221551 17 0 0.0 4.8 0.00 0.00 0.00 40 1013.9